| time (UTC) | temp C | wind direction | speed KPH | gust KPH | rain 1hr cm | rain 24hr cm | rain mn cm | humidity % | barometer mb |
| 20260505223635 | 11 | 9 | 4.8 | 22.5 | 0.00 | 0.00 | 0.00 | 73 | 1012.9 |
| 20260505222736 | 11 | 19 | 6.4 | 27.4 | 0.00 | 0.00 | 0.00 | 74 | 1012.9 |
| 20260505221836 | 11 | 29 | 4.8 | 17.7 | 0.00 | 0.00 | 0.00 | 77 | 1012.9 |
| 20260505220936 | 11 | 41 | 3.2 | 11.3 | 0.00 | 0.00 | 0.00 | 77 | 1012.8 |
| 20260505220035 | 11 | 41 | 3.2 | 17.7 | 0.00 | 0.00 | 0.00 | 77 | 1012.7 |
| 20260505215435 | 11 | 75 | 1.6 | 9.7 | 0.00 | 0.00 | 0.00 | 78 | 1012.7 |
| 20260505214536 | 11 | 80 | 1.6 | 9.7 | 0.00 | 0.00 | 0.00 | 78 | 1012.6 |
| 20260505213636 | 12 | 112 | 1.6 | 19.3 | 0.00 | 0.00 | 0.00 | 77 | 1012.5 |
| 20260505212736 | 12 | 45 | 3.2 | 19.3 | 0.00 | 0.00 | 0.00 | 76 | 1012.6 |
| 20260505211836 | 12 | 39 | 3.2 | 16.1 | 0.00 | 0.00 | 0.00 | 75 | 1012.6 |
| 20260505210936 | 12 | 46 | 3.2 | 17.7 | 0.00 | 0.00 | 0.00 | 73 | 1012.7 |
| 20260505210036 | 12 | 44 | 3.2 | 17.7 | 0.00 | 0.00 | 0.00 | 71 | 1012.5 |
| 20260505205436 | 12 | 59 | 3.2 | 11.3 | 0.00 | 0.00 | 0.00 | 69 | 1012.7 |
| 20260505204536 | 12 | 85 | 1.6 | 8.0 | 0.00 | 0.00 | 0.00 | 66 | 1012.5 |
| 20260505203636 | 12 | 100 | 1.6 | 8.0 | 0.00 | 0.00 | 0.00 | 66 | 1012.4 |
| 20260505202736 | 12 | 90 | 1.6 | 8.0 | 0.00 | 0.00 | 0.00 | 65 | 1012.3 |
| 20260505201836 | 12 | 104 | 1.6 | 8.0 | 0.00 | 0.00 | 0.00 | 67 | 1012.3 |
| 20260505200957 | 13 | 128 | 1.6 | 9.7 | 0.00 | 0.00 | 0.00 | 68 | 1012.2 |
| 20260505200036 | 13 | 127 | 1.6 | 8.0 | 0.00 | 0.00 | 0.00 | 69 | 1012.1 |
| 20260505195436 | 13 | 146 | 3.2 | 9.7 | 0.00 | 0.00 | 0.00 | 69 | 1012.0 |
| 20260505194536 | 13 | 154 | 3.2 | 9.7 | 0.00 | 0.00 | 0.00 | 70 | 1011.8 |
| 20260505193635 | 13 | 150 | 1.6 | 11.3 | 0.00 | 0.00 | 0.00 | 70 | 1011.7 |
| 20260505192736 | 13 | 139 | 1.6 | 8.0 | 0.00 | 0.00 | 0.00 | 69 | 1011.5 |
| 20260505191835 | 13 | 129 | 1.6 | 8.0 | 0.00 | 0.00 | 0.00 | 68 | 1011.5 |
| 20260505190936 | 13 | 147 | 1.6 | 11.3 | 0.00 | 0.00 | 0.00 | 66 | 1011.5 |
| 20260505190036 | 13 | 136 | 3.2 | 11.3 | 0.00 | 0.00 | 0.00 | 64 | 1011.4 |
| 20260505185436 | 13 | 136 | 3.2 | 11.3 | 0.00 | 0.00 | 0.00 | 64 | 1011.3 |
| 20260505184536 | 13 | 148 | 1.6 | 16.1 | 0.00 | 0.00 | 0.00 | 63 | 1011.2 |
| 20260505183636 | 13 | 151 | 3.2 | 16.1 | 0.00 | 0.00 | 0.00 | 62 | 1011.1 |
| 20260505182757 | 13 | 138 | 1.6 | 9.7 | 0.00 | 0.00 | 0.00 | 62 | 1010.9 |
| 20260505181836 | 14 | 139 | 1.6 | 8.0 | 0.00 | 0.00 | 0.00 | 61 | 1010.9 |
| 20260505180957 | 14 | 126 | 1.6 | 8.0 | 0.00 | 0.00 | 0.00 | 61 | 1010.9 |
| 20260505180057 | 14 | 111 | 1.6 | 9.7 | 0.00 | 0.00 | 0.00 | 61 | 1011.0 |
| 20260505175435 | 14 | 119 | 3.2 | 12.9 | 0.00 | 0.00 | 0.00 | 61 | 1011.0 |
| 20260505174535 | 14 | 150 | 3.2 | 16.1 | 0.00 | 0.00 | 0.00 | 61 | 1010.9 |
| 20260505173657 | 14 | 145 | 3.2 | 16.1 | 0.00 | 0.00 | 0.00 | 60 | 1011.0 |
| 20260505172757 | 15 | 140 | 3.2 | 16.1 | 0.00 | 0.00 | 0.00 | 60 | 1011.0 |
| 20260505171857 | 15 | 145 | 3.2 | 16.1 | 0.00 | 0.00 | 0.00 | 59 | 1011.0 |
| 20260505170935 | 15 | 156 | 4.8 | 16.1 | 0.00 | 0.00 | 0.00 | 59 | 1011.1 |
| 20260505170035 | 15 | 162 | 3.2 | 12.9 | 0.00 | 0.00 | 0.00 | 58 | 1011.2 |
| 20260505165456 | 15 | 154 | 3.2 | 12.9 | 0.00 | 0.00 | 0.00 | 58 | 1011.3 |
| 20260505164535 | 15 | 145 | 3.2 | 12.9 | 0.00 | 0.00 | 0.00 | 58 | 1011.2 |
| 20260505163635 | 15 | 153 | 4.8 | 16.1 | 0.00 | 0.00 | 0.00 | 58 | 1011.1 |
| 20260505162735 | 15 | 154 | 4.8 | 17.7 | 0.00 | 0.00 | 0.00 | 56 | 1011.3 |
| 20260505161835 | 15 | 161 | 6.4 | 17.7 | 0.00 | 0.00 | 0.00 | 55 | 1011.2 |
| 20260505160935 | 15 | 160 | 6.4 | 17.7 | 0.00 | 0.00 | 0.00 | 53 | 1011.1 |
| 20260505152735 | 16 | 155 | 4.8 | 12.9 | 0.00 | 0.00 | 0.00 | 51 | 1011.2 |
| 20260505151835 | 16 | 107 | 3.2 | 12.9 | 0.00 | 0.00 | 0.00 | 51 | 1011.1 |
| 20260505150935 | 16 | 44 | 1.6 | 9.7 | 0.00 | 0.00 | 0.00 | 50 | 1011.1 |
| 20260505124535 | 16 | 15 | 3.2 | 17.7 | 0.00 | 0.00 | 0.00 | 52 | 1011.7 |
| 20260505123635 | 16 | 39 | 3.2 | 17.7 | 0.00 | 0.00 | 0.00 | 50 | 1011.7 |
| 20260505122735 | 16 | 33 | 3.2 | 17.7 | 0.00 | 0.00 | 0.00 | 50 | 1011.8 |
| 20260505121835 | 16 | 14 | 4.8 | 19.3 | 0.00 | 0.00 | 0.00 | 51 | 1011.8 |
| 20260505120935 | 16 | 15 | 3.2 | 19.3 | 0.00 | 0.00 | 0.00 | 49 | 1011.8 |
| 20260505120035 | 16 | 44 | 3.2 | 19.3 | 0.00 | 0.00 | 0.00 | 52 | 1011.8 |
| 20260505115435 | 16 | 53 | 3.2 | 17.7 | 0.00 | 0.00 | 0.00 | 52 | 1011.9 |
| 20260505114535 | 16 | 49 | 4.8 | 19.3 | 0.00 | 0.00 | 0.00 | 50 | 1011.9 |
| 20260505113635 | 16 | 36 | 4.8 | 19.3 | 0.00 | 0.00 | 0.00 | 50 | 1012.0 |
| 20260505112735 | 16 | 24 | 4.8 | 19.3 | 0.00 | 0.00 | 0.00 | 53 | 1011.9 |
| 20260505111835 | 16 | 7 | 3.2 | 19.3 | 0.00 | 0.00 | 0.00 | 55 | 1012.1 |
| 20260505110935 | 15 | 24 | 4.8 | 19.3 | 0.00 | 0.00 | 0.00 | 56 | 1012.0 |
| 20260505101835 | 16 | 37 | 3.2 | 16.1 | 0.00 | 0.00 | 0.00 | 58 | 1012.5 |
| 20260505100935 | 16 | 20 | 3.2 | 16.1 | 0.00 | 0.00 | 0.00 | 58 | 1012.5 |
| 20260505100035 | 16 | 42 | 4.8 | 12.9 | 0.00 | 0.00 | 0.00 | 60 | 1012.6 |
| 20260505095435 | 15 | 48 | 3.2 | 12.9 | 0.00 | 0.00 | 0.00 | 59 | 1012.8 |
| 20260505094535 | 15 | 54 | 3.2 | 20.9 | 0.00 | 0.00 | 0.00 | 61 | 1012.7 |
| 20260505093635 | 15 | 61 | 4.8 | 20.9 | 0.00 | 0.00 | 0.00 | 63 | 1012.7 |
| 20260505092735 | 14 | 36 | 3.2 | 20.9 | 0.00 | 0.00 | 0.00 | 64 | 1012.7 |
| 20260505091835 | 14 | 26 | 3.2 | 11.3 | 0.00 | 0.00 | 0.00 | 68 | 1012.9 |
| 20260505090935 | 13 | 356 | 3.2 | 12.9 | 0.00 | 0.00 | 0.00 | 70 | 1013.0 |
| 20260505090035 | 13 | 38 | 4.8 | 12.9 | 0.00 | 0.00 | 0.00 | 68 | 1012.9 |
| 20260505085435 | 13 | 34 | 3.2 | 12.9 | 0.00 | 0.00 | 0.00 | 69 | 1013.0 |
| 20260505084535 | 12 | 51 | 3.2 | 12.9 | 0.00 | 0.00 | 0.00 | 73 | 1013.0 |
| 20260505083656 | 12 | 40 | 3.2 | 11.3 | 0.00 | 0.00 | 0.00 | 74 | 1013.1 |
| 20260505082735 | 12 | 7 | 3.2 | 11.3 | 0.00 | 0.00 | 0.00 | 75 | 1013.1 |
| 20260505081835 | 12 | 359 | 3.2 | 12.9 | 0.00 | 0.00 | 0.00 | 76 | 1013.0 |
| 20260505080935 | 12 | 9 | 3.2 | 17.7 | 0.00 | 0.00 | 0.00 | 76 | 1013.0 |
| 20260505080035 | 12 | 35 | 3.2 | 12.9 | 0.00 | 0.00 | 0.00 | 77 | 1013.0 |
| 20260505075435 | 12 | 34 | 3.2 | 16.1 | 0.00 | 0.00 | 0.00 | 77 | 1012.9 |
| 20260505074535 | 11 | 15 | 3.2 | 12.9 | 0.00 | 0.00 | 0.00 | 78 | 1012.8 |
| 20260505073635 | 11 | 14 | 3.2 | 11.3 | 0.00 | 0.00 | 0.00 | 80 | 1012.8 |
| 20260505072735 | 11 | 9 | 3.2 | 9.7 | 0.00 | 0.00 | 0.00 | 81 | 1013.0 |
| 20260505071835 | 11 | 12 | 3.2 | 8.0 | 0.00 | 0.00 | 0.00 | 81 | 1013.1 |
| 20260505070956 | 11 | 25 | 3.2 | 12.9 | 0.00 | 0.00 | 0.00 | 81 | 1013.0 |
| 20260505070035 | 11 | 27 | 1.6 | 9.7 | 0.00 | 0.00 | 0.00 | 82 | 1013.1 |
| 20260505065435 | 11 | 27 | 1.6 | 9.7 | 0.00 | 0.00 | 0.00 | 82 | 1013.2 |
| 20260505064535 | 11 | 26 | 3.2 | 9.7 | 0.00 | 0.00 | 0.00 | 82 | 1013.2 |
| 20260505063635 | 11 | 26 | 3.2 | 8.0 | 0.00 | 0.00 | 0.00 | 82 | 1013.3 |
| 20260505062735 | 11 | 42 | 1.6 | 8.0 | 0.00 | 0.00 | 0.00 | 83 | 1013.3 |
| 20260505061856 | 11 | 39 | 1.6 | 8.0 | 0.00 | 0.00 | 0.00 | 84 | 1013.2 |
| 20260505060935 | 10 | 47 | 1.6 | 8.0 | 0.00 | 0.00 | 0.00 | 85 | 1013.1 |
| 20260505060056 | 10 | 27 | 1.6 | 8.0 | 0.00 | 0.00 | 0.00 | 85 | 1013.0 |
| 20260505055435 | 10 | 26 | 1.6 | 6.4 | 0.00 | 0.00 | 0.00 | 85 | 1013.1 |
| 20260505054535 | 10 | 41 | 0.0 | 3.2 | 0.00 | 0.00 | 0.00 | 85 | 1013.1 |
| 20260505053635 | 10 | 48 | 0.0 | 3.2 | 0.00 | 0.00 | 0.00 | 84 | 1013.1 |
| 20260505052734 | 10 | 48 | 0.0 | 3.2 | 0.00 | 0.00 | 0.00 | 84 | 1013.2 |
| 20260505051834 | 10 | 56 | 0.0 | 6.4 | 0.00 | 0.00 | 0.00 | 84 | 1013.2 |
| 20260505050934 | 10 | 61 | 0.0 | 8.0 | 0.00 | 0.00 | 0.00 | 84 | 1013.2 |
| 20260505040934 | 11 | 57 | 1.6 | 8.0 | 0.00 | 0.00 | 0.00 | 84 | 1013.2 |
| 20260505040034 | 11 | 56 | 1.6 | 8.0 | 0.00 | 0.00 | 0.00 | 84 | 1013.3 |
| 20260505035435 | 11 | 72 | 1.6 | 8.0 | 0.00 | 0.00 | 0.00 | 84 | 1013.2 |
| 20260505034534 | 11 | 77 | 1.6 | 8.0 | 0.00 | 0.00 | 0.00 | 84 | 1013.3 |
| 20260505033635 | 11 | 71 | 0.0 | 6.4 | 0.00 | 0.00 | 0.00 | 85 | 1013.3 |
| 20260505032734 | 11 | 76 | 0.0 | 8.0 | 0.00 | 0.00 | 0.00 | 85 | 1013.4 |
| 20260505031835 | 11 | 74 | 1.6 | 8.0 | 0.00 | 0.00 | 0.00 | 85 | 1013.4 |
| 20260505030934 | 11 | 83 | 0.0 | 6.4 | 0.00 | 0.00 | 0.00 | 86 | 1013.4 |
| 20260505030035 | 11 | 67 | 1.6 | 6.4 | 0.00 | 0.00 | 0.00 | 86 | 1013.3 |
| 20260505025434 | 11 | 43 | 0.0 | 3.2 | 0.00 | 0.00 | 0.00 | 86 | 1013.4 |
| 20260505024534 | 11 | 36 | 0.0 | 6.4 | 0.00 | 0.00 | 0.00 | 87 | 1013.5 |
| 20260505023655 | 11 | 98 | 0.0 | 6.4 | 0.00 | 0.00 | 0.00 | 87 | 1013.5 |
| 20260505022734 | 11 | 121 | 0.0 | 6.4 | 0.00 | 0.00 | 0.00 | 87 | 1013.5 |
| 20260505021834 | 11 | 132 | 0.0 | 6.4 | 0.00 | 0.00 | 0.00 | 87 | 1013.4 |
| 20260505020955 | 11 | 116 | 0.0 | 6.4 | 0.00 | 0.00 | 0.00 | 87 | 1013.4 |
| 20260505020034 | 11 | 74 | 1.6 | 6.4 | 0.00 | 0.00 | 0.00 | 87 | 1013.4 |
| 20260505015434 | 11 | 104 | 1.6 | 11.3 | 0.00 | 0.00 | 0.00 | 87 | 1013.3 |
| 20260505014534 | 11 | 145 | 1.6 | 9.7 | 0.00 | 0.00 | 0.00 | 87 | 1013.6 |
| 20260505013634 | 11 | 141 | 1.6 | 11.3 | 0.00 | 0.00 | 0.00 | 87 | 1013.6 |
| 20260505012734 | 11 | 152 | 1.6 | 11.3 | 0.00 | 0.00 | 0.00 | 87 | 1013.9 |
| 20260505011834 | 11 | 157 | 3.2 | 11.3 | 0.00 | 0.00 | 0.00 | 87 | 1013.9 |
| 20260505010955 | 11 | 161 | 3.2 | 11.3 | 0.00 | 0.00 | 0.00 | 87 | 1014.0 |
| 20260505010034 | 11 | 147 | 1.6 | 9.7 | 0.00 | 0.00 | 0.00 | 87 | 1014.0 |
| 20260505005455 | 11 | 143 | 1.6 | 6.4 | 0.00 | 0.00 | 0.00 | 87 | 1013.9 |
| 20260505004555 | 11 | 152 | 0.0 | 6.4 | 0.00 | 0.00 | 0.00 | 87 | 1013.9 |
| 20260505003634 | 11 | 153 | 1.6 | 6.4 | 0.00 | 0.00 | 0.00 | 86 | 1014.1 |
| 20260505002734 | 12 | 138 | 0.0 | 3.2 | 0.00 | 0.00 | 0.00 | 86 | 1014.2 |
| 20260505001834 | 12 | 127 | 0.0 | 3.2 | 0.00 | 0.00 | 0.00 | 85 | 1014.2 |
| 20260505000934 | 12 | 0 | 0.0 | 16.1 | 0.00 | 0.00 | 0.00 | 85 | 1014.1 |
| 20260505000034 | 12 | 89 | 1.6 | 16.1 | 0.00 | 0.00 | 0.00 | 84 | 1014.3 |
| 20260504235434 | 12 | 115 | 1.6 | 8.0 | 0.00 | 0.00 | 0.00 | 83 | 1014.3 |
| 20260504234534 | 12 | 100 | 1.6 | 8.0 | 0.00 | 0.00 | 0.00 | 83 | 1014.3 |
| 20260504233634 | 12 | 160 | 1.6 | 12.9 | 0.00 | 0.00 | 0.00 | 83 | 1014.5 |
| 20260504232734 | 12 | 142 | 3.2 | 12.9 | 0.00 | 0.00 | 0.00 | 82 | 1014.4 |
| 20260504231834 | 12 | 137 | 3.2 | 11.3 | 0.00 | 0.00 | 0.00 | 82 | 1014.5 |
| 20260504230934 | 12 | 141 | 1.6 | 8.0 | 0.00 | 0.00 | 0.00 | 81 | 1014.5 |
| 20260504230056 | 13 | 127 | 3.2 | 17.7 | 0.00 | 0.00 | 0.00 | 80 | 1014.5 |
| 20260504225434 | 13 | 65 | 1.6 | 8.0 | 0.00 | 0.00 | 0.00 | 79 | 1014.4 |
| 20260504224534 | 13 | 28 | 3.2 | 11.3 | 0.00 | 0.00 | 0.00 | 78 | 1014.2 |